This is the latest recevied weather packets stored in our database for station/object TA3HRJ-12. If no packets are shown the sender has not sent any weather packets the latest 10 day(s).
| Time | Temp. | Humidity | Pressure | Rain* | Wind** | Luminosity | Snow |
|---|---|---|---|---|---|---|---|
| 1777549158 | 29.44° C | 12% | 1027.5 hPa | - | - | - | - |
| 1777548258 | 29.44° C | 12% | 1027.7 hPa | - | - | - | - |
| 1777547359 | 28.33° C | 12% | 1027.8 hPa | - | - | - | - |
| 1777546458 | 27.78° C | 13% | 1027.9 hPa | - | - | - | - |
| 1777545558 | 26.67° C | 13% | 1028 hPa | - | - | - | - |
| 1777544658 | 27.78° C | 12% | 1028.1 hPa | - | - | - | - |
| 1777543758 | 28.89° C | 12% | 1028.2 hPa | - | - | - | - |
| 1777542858 | 28.89° C | 12% | 1028.2 hPa | - | - | - | - |
| 1777541957 | 26.67° C | 11% | 1028.3 hPa | - | - | - | - |
| 1777541057 | 26.67° C | 13% | 1028.4 hPa | - | - | - | - |
| 1777540157 | 26.11° C | 13% | 1028.5 hPa | - | - | - | - |
| 1777539257 | 26.67° C | 15% | 1028.6 hPa | - | - | - | - |
| 1777538357 | 26.11° C | 17% | 1028.7 hPa | - | - | - | - |
| 1777537457 | 26.67° C | 16% | 1028.8 hPa | - | - | - | - |
| 1777536557 | 27.78° C | 15% | 1028.7 hPa | - | - | - | - |
| 1777535657 | 27.22° C | 16% | 1028.8 hPa | - | - | - | - |
| 1777534757 | 26.11° C | 16% | 1028.8 hPa | - | - | - | - |
| 1777533856 | 25.56° C | 18% | 1028.8 hPa | - | - | - | - |
| 1777532955 | 25° C | 18% | 1028.8 hPa | - | - | - | - |
| 1777532055 | 25° C | 18% | 1028.9 hPa | - | - | - | - |
| 1777531155 | 25.56° C | 18% | 1028.8 hPa | - | - | - | - |
| 1777530255 | 24.44° C | 19% | 1028.7 hPa | - | - | - | - |
| 1777529355 | 25° C | 17% | 1028.8 hPa | - | - | - | - |
| 1777528455 | 25° C | 18% | 1028.7 hPa | - | - | - | - |
| 1777527555 | 24.44° C | 18% | 1028.9 hPa | - | - | - | - |
* Rain since midnight (hover to see other rain measurements)
** Current wind speed in m/s (hover to see current wind gust speed)